GFSSW_sfc_dewp_243.txt.gz
Dewpoint
57 58 58 58 58 58 58 58 59 59 59 59 59 59 60 60 58 48 37 51 62 75 73 66 63 65 65 62 63 60 58 56 53 53 54 55 52 53 53 53 53 53 53 56 58
57 58 58 58 58 58 58 58 58 58 58 58 58 59 60 60 40 28 58 75 74 75 65 61 61 63 62 62 63 58 56 52 56 55 54 54 54 53 51 52 52 50 54 56 57
56 57 57 57 57 58 58 58 58 58 58 58 58 59 60 57 32 34 69 75 74 73 63 64 62 62 60 61 58 56 51 53 54 56 56 54 53 53 53 53 53 53 54 55 56
56 56 56 56 57 57 57 57 57 57 57 58 58 58 59 40 27 56 70 75 74 64 62 62 60 60 58 53 54 54 53 53 56 56 56 57 57 53 56 54 54 54 54 54 54
56 56 56 56 56 57 57 57 57 57 57 58 58 58 46 20 24 61 72 73 66 62 53 56 56 51 53 49 50 55 53 54 57 56 58 59 58 58 58 54 55 55 54 53 51
56 56 56 56 56 57 57 57 57 57 57 57 58 58 41 14 18 49 54 62 57 58 51 49 46 47 50 48 54 54 51 52 53 57 58 57 58 59 58 54 54 53 51 51 51
56 56 56 56 56 56 57 57 56 58 59 58 58 48 28 10 33 40 54 56 55 53 48 46 46 46 47 47 51 49 50 51 52 55 55 56 55 55 59 55 52 53 51 52 52
56 56 56 56 56 56 56 56 57 59 57 57 57 42 23 12 14 35 46 51 53 52 49 46 45 43 43 50 50 47 48 46 51 53 54 54 55 58 59 57 54 53 52 54 54
56 56 56 56 55 55 55 55 57 57 57 57 48 33 12 27 6 7 38 46 48 49 49 51 44 41 42 43 46 46 42 49 57 50 54 52 55 58 58 58 56 52 52 54 55
56 56 54 55 55 55 55 55 56 56 54 45 35 24 15 8 11 7 17 30 33 42 40 47 42 39 39 41 40 41 39 46 43 47 50 51 50 54 56 55 57 53 52 53 54
55 54 54 54 55 54 51 45 35 38 32 20 19 17 16 13 16 15 9 14 22 28 32 40 34 33 35 38 38 39 37 35 39 44 47 47 48 53 54 54 56 55 52 52 54
54 54 54 54 54 54 49 26 31 30 25 18 15 15 16 17 16 12 9 10 14 21 29 32 31 30 34 34 36 41 37 36 40 43 44 44 44 46 53 54 55 57 53 52 51
55 54 54 54 53 48 30 31 32 32 27 17 11 12 14 15 11 8 11 10 5 17 22 28 29 29 30 33 34 39 36 35 37 43 42 40 41 41 47 54 56 57 57 54 51
54 54 54 53 45 31 32 31 31 31 20 12 12 14 16 16 10 9 9 11 4 5 17 24 27 28 28 31 33 33 36 36 37 37 33 40 35 43 44 50 54 55 56 56 54
54 54 54 53 36 29 29 31 29 29 10 12 13 17 15 15 13 8 7 11 5 2 6 18 24 25 27 28 31 32 35 36 35 33 33 37 32 37 45 46 50 53 57 56 56
54 53 53 47 38 28 31 30 28 20 9 8 11 14 12 11 9 8 9 8 9 5 5 8 19 23 26 26 28 33 32 33 38 31 31 33 31 32 40 44 47 52 54 56 55
53 52 50 43 31 34 34 28 19 8 14 12 15 14 11 7 10 9 7 9 6 9 8 4 9 20 24 26 29 30 30 29 31 29 28 31 29 32 38 40 44 50 53 55 55
52 51 49 40 38 36 34 24 18 15 15 18 15 12 9 10 12 9 10 3 7 6 1 2 4 15 23 28 29 27 28 28 31 27 26 31 31 33 36 38 40 47 52 53 53
51 44 37 35 37 37 29 17 20 20 20 18 14 13 11 12 14 13 12 4 2 6 9 2 4 13 21 23 25 26 26 28 27 28 24 26 31 35 37 36 39 43 48 52 52
45 34 35 33 33 34 29 25 24 23 22 22 19 18 17 16 17 16 13 16 13 15 7 10 8 6 11 21 23 24 26 25 27 30 28 25 29 31 36 36 37 43 45 50 53
44 32 35 30 31 31 21 26 24 24 25 24 22 22 20 18 21 18 16 24 25 22 18 9 9 11 13 20 19 20 23 26 23 24 24 24 26 33 36 38 38 38 41 45 51
36 30 34 30 30 27 25 26 31 23 24 24 25 23 24 23 21 22 20 29 26 26 22 17 7 9 11 14 17 17 22 24 23 28 22 23 24 24 35 37 38 40 49 47 45
36 29 33 28 25 23 27 22 23 22 22 23 21 22 25 24 24 22 25 24 26 25 32 33 15 5 9 11 13 13 16 17 22 23 27 21 22 32 37 40 44 49 52 53 50
32 27 31 30 27 23 26 24 24 25 23 25 24 24 22 22 22 22 23 21 24 21 43 40 22 13 2 11 7 11 6 13 14 17 21 21 24 32 37 42 45 54 58 55 53
28 28 30 27 26 25 26 25 21 21 24 23 24 22 22 24 22 20 19 20 24 35 30 28 25 19 11 4 3 5 3 3 11 14 15 22 22 26 34 44 53 55 59 59 57
34 32 28 28 29 27 27 26 25 22 22 22 23 23 22 24 25 24 25 26 26 26 27 26 29 27 19 10 6 3 2 2 3 6 14 16 20 22 40 52 56 58 60 64 64
36 37 32 31 24 23 27 26 23 24 25 24 22 21 22 24 28 28 27 26 25 26 27 26 27 29 23 19 17 8 6 4 6 5 6 13 20 27 55 57 58 58 60 60 61

GFSSW_sfc_dewp_249.txt.gz
Dewpoint
58 58 58 58 58 58 58 58 59 59 59 59 59 60 60 60 59 47 39 54 64 73 74 66 67 67 66 64 64 65 60 56 58 57 51 50 49 51 54 53 54 54 54 55 57
57 57 57 57 58 58 59 59 59 59 59 59 59 60 60 60 48 32 57 72 73 73 66 64 61 62 63 60 59 62 58 55 57 61 54 51 48 49 50 52 53 53 54 55 56
57 57 57 57 57 58 58 59 59 59 59 59 59 59 60 59 41 38 74 75 73 73 60 60 61 61 61 58 59 63 57 63 60 60 61 50 54 54 48 50 52 53 53 54 55
56 56 56 57 57 57 58 58 59 59 58 58 59 59 60 48 33 52 74 74 74 69 60 59 57 60 59 57 57 56 60 63 63 63 57 57 57 55 50 52 53 54 54 54 55
56 56 56 57 57 57 57 58 58 58 58 59 60 60 49 35 20 63 75 74 68 62 57 58 57 59 56 49 50 54 56 59 58 58 57 58 58 55 51 53 53 53 54 54 54
57 57 57 57 57 57 57 57 57 57 58 60 61 59 48 22 52 62 62 66 59 57 54 53 53 52 56 49 50 56 54 56 60 57 57 58 59 57 53 52 52 53 53 53 54
57 57 57 56 56 56 57 57 57 57 58 61 60 49 34 29 26 57 57 55 55 51 50 50 51 47 44 44 56 55 55 58 59 57 59 58 59 55 53 51 51 51 52 53 53
57 56 55 56 56 56 56 56 56 57 58 60 58 45 34 21 15 12 17 30 50 48 49 50 48 45 43 44 45 52 57 55 59 59 57 55 56 61 59 50 50 50 50 52 53
56 55 56 56 56 56 56 56 56 57 58 61 48 39 31 34 11 10 10 11 27 46 46 46 45 45 45 41 39 48 48 54 58 56 57 54 56 60 54 51 50 50 49 50 51
56 56 56 56 56 55 55 55 57 55 53 48 42 36 31 13 12 14 12 3 15 36 43 42 42 41 43 42 36 40 46 52 52 52 54 54 56 57 51 50 50 50 50 50 52
56 56 56 56 55 55 51 43 35 42 40 33 25 27 10 10 15 14 13 11 16 34 37 40 38 34 34 38 39 38 39 49 50 50 51 51 55 57 54 49 48 48 51 51 50
56 56 56 55 55 54 51 37 24 24 23 23 21 12 9 13 9 8 12 12 9 25 28 25 31 33 32 31 29 30 40 39 42 50 50 50 53 57 55 54 48 48 51 52 52
55 55 55 55 54 49 39 23 23 23 23 22 12 7 11 12 10 8 6 10 8 7 17 21 24 29 28 30 28 27 33 40 41 44 47 48 53 55 55 55 51 49 51 51 53
55 55 54 53 46 39 31 21 23 22 25 19 12 15 13 13 11 10 6 6 9 5 6 10 15 16 18 27 28 25 27 31 45 44 44 41 37 52 54 53 55 53 51 50 52
55 54 54 53 47 40 25 23 24 26 21 12 11 14 15 13 12 11 8 8 5 7 9 7 6 7 10 16 24 25 27 26 36 43 40 38 36 37 51 51 55 54 53 51 51
54 54 53 50 49 44 30 26 30 26 21 10 10 9 8 8 7 6 11 10 8 5 4 7 9 8 2 8 14 23 26 25 27 41 37 37 36 35 47 50 53 55 55 53 51
53 53 51 45 40 33 30 34 28 24 19 13 10 10 8 7 5 10 11 11 10 6 7 4 2 7 6 2 2 7 21 23 24 29 34 36 35 35 47 51 54 55 55 55 55
52 52 50 42 41 36 35 34 29 15 15 13 14 13 10 11 12 17 18 13 12 13 12 6 3 6 7 4 3 5 18 23 23 26 31 34 33 32 44 46 54 55 56 56 55
51 46 43 41 42 37 38 32 27 20 17 13 16 16 17 14 15 17 17 21 22 26 26 22 21 21 2 2 3 3 5 20 22 22 23 30 33 35 43 45 47 54 55 55 56
48 40 39 40 28 32 35 33 30 20 19 18 17 20 18 17 17 17 17 23 26 26 27 26 21 21 17 9 4 2 4 16 22 20 21 26 31 32 38 40 44 49 55 56 56
47 42 39 29 27 35 31 30 24 20 21 20 20 20 20 19 19 19 19 20 26 25 27 25 27 25 24 18 6 6 3 6 20 25 23 24 28 34 35 38 42 48 54 56 57
40 39 37 35 32 33 32 30 30 20 21 22 26 20 18 17 21 19 16 18 24 26 24 26 22 22 23 21 19 12 7 10 18 24 26 25 22 37 38 44 37 42 55 57 58
42 42 35 28 26 28 29 25 22 22 22 22 19 21 20 20 21 20 19 18 17 25 27 24 23 18 23 20 14 13 18 15 20 23 23 24 26 40 41 47 51 52 52 58 57
44 37 37 40 33 28 28 26 22 23 23 25 26 22 22 22 24 24 20 18 17 24 48 37 21 20 18 20 22 20 19 16 14 20 19 20 23 38 43 46 47 64 64 66 67
46 37 35 28 27 29 27 25 22 21 24 25 27 21 23 24 23 22 20 22 24 40 30 28 24 27 26 23 24 24 24 16 13 16 19 20 25 30 46 49 57 62 64 63 64
40 37 35 28 31 34 31 28 23 26 23 22 24 21 22 21 25 27 26 27 27 26 25 26 25 28 26 25 24 24 25 17 13 10 17 17 24 57 60 59 56 59 61 62 63
49 44 40 37 32 29 30 31 25 26 26 26 25 24 23 29 30 30 29 28 26 24 23 21 24 26 23 25 25 23 29 37 34 18 13 13 43 56 57 59 56 55 59 61 62

GFSSW_sfc_dewp_252.txt.gz
Dewpoint
58 58 57 58 58 58 59 59 59 59 59 59 59 60 60 60 59 50 34 50 64 73 74 67 68 68 69 67 66 63 60 55 56 58 59 53 51 54 55 54 54 55 55 60 63
57 57 57 57 57 58 58 58 59 59 59 59 59 59 60 60 52 39 53 71 73 74 67 64 65 66 65 64 65 62 58 56 61 61 59 59 53 53 53 53 53 53 60 61 64
56 57 57 57 57 57 58 58 59 59 58 59 59 60 60 59 41 31 72 73 72 74 65 64 61 62 62 61 63 62 58 58 60 61 61 60 52 53 53 52 53 54 59 59 61
56 57 57 57 57 57 58 58 58 58 58 58 60 60 60 53 35 52 73 74 73 70 63 59 59 60 59 56 60 60 60 60 60 59 62 62 56 52 53 53 54 55 57 58 60
57 57 57 57 57 57 57 58 58 58 58 58 61 61 46 34 21 54 74 74 69 64 59 57 57 59 56 53 53 57 60 63 64 65 64 62 57 53 53 54 54 54 55 56 57
57 57 56 56 57 57 57 57 57 57 58 58 61 59 44 17 45 67 68 68 62 59 55 56 55 54 53 54 51 55 59 60 64 64 63 57 55 55 54 54 53 54 54 55 55
56 56 55 55 56 57 57 57 57 57 57 59 60 51 39 26 53 62 62 59 58 56 51 51 51 49 47 43 56 56 55 59 62 62 60 58 56 52 54 53 53 53 53 54 55
56 56 56 56 56 56 56 56 56 57 58 59 59 48 28 33 24 31 56 32 52 53 52 51 51 48 44 44 46 53 57 54 61 60 60 57 54 54 53 52 52 53 53 54 55
56 56 56 56 56 56 56 56 56 57 58 59 48 42 30 40 12 10 11 9 8 29 48 47 46 44 45 44 42 47 51 54 56 57 55 58 56 58 55 51 51 52 52 53 54
57 56 56 56 56 56 55 55 55 55 55 50 45 33 27 13 13 14 14 12 6 16 38 45 42 40 39 40 39 38 47 53 54 55 55 55 56 56 57 50 50 50 50 52 53
56 56 56 56 55 55 50 39 23 24 34 34 31 32 28 10 14 10 14 13 9 25 33 34 38 37 38 37 37 38 35 48 51 54 54 53 53 56 56 50 49 50 50 50 53
56 56 55 55 55 54 49 32 21 22 22 23 23 23 15 14 10 9 12 12 7 11 25 25 24 27 36 35 32 30 29 29 44 49 50 50 51 57 53 50 50 49 50 50 52
55 55 55 54 53 46 36 34 22 28 21 21 19 8 11 12 12 10 10 11 11 9 5 20 22 22 19 20 26 27 28 31 40 47 50 49 49 54 56 50 50 48 49 51 51
55 55 54 53 40 41 36 28 26 24 23 22 12 13 14 13 13 13 8 5 11 5 5 5 9 12 11 12 15 23 26 28 38 44 41 45 42 55 55 54 48 46 48 51 51
55 54 53 53 38 38 32 35 31 26 11 17 12 16 13 13 13 10 8 5 5 3 8 7 8 8 7 6 6 8 13 19 28 42 41 41 41 43 55 54 50 48 48 51 51
54 54 53 48 47 44 43 39 29 23 15 10 11 10 9 8 6 9 11 10 9 7 6 5 7 6 8 6 7 7 3 7 24 41 39 39 37 36 53 54 54 50 49 51 53
53 52 51 46 33 39 38 33 24 18 15 12 12 14 14 11 8 13 16 14 12 8 8 9 5 3 9 5 5 7 5 9 18 27 35 37 35 35 50 54 55 53 52 51 51
52 51 50 45 41 40 37 30 24 16 14 14 13 16 15 15 16 16 16 17 25 26 24 21 17 21 22 19 8 4 6 10 18 21 23 30 32 34 44 51 54 55 55 53 50
51 44 42 39 43 40 33 29 25 19 18 16 16 18 17 17 17 18 17 22 25 27 24 24 22 24 23 25 13 10 3 5 10 11 21 23 29 30 36 44 51 55 55 54 52
44 39 35 36 39 33 29 32 28 20 20 18 18 20 17 18 18 19 19 24 26 25 28 26 22 23 26 25 20 20 6 2 11 15 11 22 26 30 32 46 52 54 55 55 55
43 38 40 41 28 28 25 28 24 21 20 19 20 19 18 16 18 18 18 17 26 25 25 31 24 22 24 22 23 23 19 14 4 15 9 14 23 31 31 40 50 54 55 56 56
42 35 38 32 25 28 27 30 31 19 20 19 20 19 18 18 17 16 16 16 19 21 23 29 21 19 20 21 23 24 19 16 17 13 21 24 24 27 41 43 46 59 53 56 56
39 39 41 28 19 21 23 23 22 20 23 22 19 20 20 18 16 20 21 21 21 26 25 24 20 18 18 18 23 21 22 24 23 17 18 17 18 34 41 60 58 61 62 64 63
41 35 30 32 27 32 22 21 22 23 23 21 20 20 21 21 21 21 20 21 26 32 48 34 21 19 18 20 24 23 24 24 24 17 14 15 22 24 44 60 60 61 62 63 64
43 35 31 28 25 26 33 21 21 21 22 21 20 21 20 23 18 24 26 26 26 34 25 25 23 24 26 25 25 25 24 24 32 26 13 12 12 25 52 59 60 61 61 62 62
40 38 37 33 32 28 32 23 24 21 20 23 21 21 22 26 26 26 28 29 25 25 27 23 21 23 24 23 24 23 24 34 39 44 49 41 45 58 56 58 58 59 60 61 61
48 45 38 37 34 32 30 25 24 22 24 25 25 22 25 29 30 30 30 29 28 26 26 23 21 21 18 22 21 19 35 41 40 47 50 46 46 57 56 53 56 58 60 60 60

GFSSW_sfc_dewp_258.txt.gz
Dewpoint
57 57 57 57 58 58 58 58 58 59 59 59 59 59 60 61 59 53 27 45 63 74 71 66 68 68 68 65 65 64 56 54 55 57 56 56 53 54 56 57 57 58 61 65 68
57 57 57 57 58 58 58 58 58 58 59 59 59 59 61 61 51 36 49 70 73 74 65 66 66 67 64 63 64 60 56 55 59 60 59 60 57 54 54 55 57 62 65 67 68
57 57 57 56 56 56 57 58 58 58 58 58 59 60 61 59 35 31 71 73 74 74 67 67 67 67 63 63 63 61 56 59 59 59 61 60 54 54 53 53 56 61 64 66 67
57 57 57 57 57 57 57 58 58 58 58 58 59 60 60 50 32 52 73 73 74 70 62 62 61 61 60 61 62 59 59 58 60 59 60 61 63 54 54 54 57 63 65 65 65
57 57 57 57 57 57 57 57 57 58 58 58 59 60 47 25 12 64 73 74 70 65 58 57 59 58 53 55 61 60 59 62 62 62 63 63 63 60 54 56 60 63 64 64 64
57 57 57 57 57 57 57 57 57 57 57 58 59 60 40 4 50 67 67 64 64 59 54 57 56 55 50 48 56 60 61 62 63 61 60 61 61 62 56 59 61 62 62 63 63
56 56 56 56 57 57 57 57 57 57 57 58 59 54 28 16 59 63 61 56 58 55 46 50 52 48 48 45 59 61 59 60 59 60 59 62 53 54 56 59 60 61 62 62 62
56 56 56 56 56 56 57 56 56 57 57 58 59 48 16 24 37 41 60 54 54 57 54 52 51 49 48 47 55 55 57 54 59 60 60 61 52 55 55 57 58 59 60 61 61
56 56 56 56 56 56 56 56 56 57 58 58 48 42 24 39 16 14 51 28 26 30 51 49 48 44 43 41 42 47 50 54 55 59 59 59 55 55 54 55 56 57 58 59 59
56 56 56 56 56 55 55 55 55 56 55 55 46 20 16 18 18 12 14 13 11 10 29 42 42 40 39 37 36 37 36 43 52 57 59 56 57 54 53 53 53 55 56 57 56
56 56 56 56 55 55 50 24 21 25 23 31 25 28 24 26 18 11 11 11 12 25 28 28 35 37 39 38 38 36 36 35 37 48 55 54 55 53 53 52 52 53 53 54 55
56 55 55 55 54 54 44 24 24 28 21 23 24 27 27 24 11 11 12 7 6 8 21 30 33 29 29 23 18 17 23 23 29 32 52 51 53 56 52 52 52 52 53 53 54
55 55 55 54 54 44 37 31 36 30 21 21 22 18 8 13 12 11 10 11 5 3 8 20 29 17 11 7 8 8 13 20 15 16 34 51 50 53 53 52 52 53 53 53 53
55 55 54 53 41 38 28 36 39 24 12 12 11 14 14 13 9 14 10 8 6 5 6 5 7 8 5 7 8 20 11 10 6 7 7 46 44 51 54 51 51 51 52 52 52
55 54 53 53 37 33 35 39 37 19 7 16 11 15 12 9 11 21 19 5 5 6 3 4 4 4 3 5 11 5 8 8 9 5 23 31 40 41 55 53 53 51 50 52 52
54 53 53 46 40 37 40 35 27 14 10 13 15 16 16 16 19 23 26 23 19 19 19 12 12 7 8 17 13 14 11 8 28 26 17 22 33 31 53 54 55 52 51 51 51
53 52 50 45 26 37 37 29 20 10 16 13 14 16 17 17 20 24 25 25 21 20 22 22 21 22 23 21 21 19 5 4 10 23 17 28 20 35 39 45 55 55 52 51 51
52 51 50 46 39 39 33 24 16 14 15 16 16 18 17 18 19 23 24 22 25 23 23 21 13 22 25 23 21 21 12 3 1 12 11 8 6 17 38 38 43 52 54 52 51
50 39 38 38 45 37 31 23 17 17 16 16 18 17 17 16 18 19 21 25 25 25 19 20 19 25 25 25 24 18 16 12 5 6 5 7 8 14 19 26 29 36 53 55 52
43 40 38 37 39 31 29 31 29 22 18 19 15 18 16 15 16 17 18 20 18 24 27 24 19 23 24 20 19 25 21 15 13 8 6 9 14 12 19 21 35 45 39 55 54
40 34 36 37 27 25 26 26 28 23 19 19 19 16 17 16 16 16 17 19 22 22 25 28 24 20 22 20 19 19 20 20 18 13 9 13 16 18 24 32 30 50 55 53 55
37 31 38 31 24 26 23 28 33 20 19 19 18 17 17 17 17 15 16 21 27 27 24 26 22 19 20 21 23 21 21 23 21 19 21 20 20 22 23 28 35 45 55 62 57
36 37 40 28 22 21 22 22 22 19 21 19 19 20 19 17 16 20 21 25 26 32 26 28 22 19 19 16 23 25 25 27 23 22 21 19 21 27 32 46 51 54 56 62 62
38 27 31 28 27 28 24 19 21 23 21 20 19 20 21 20 20 20 23 25 27 32 40 31 22 20 18 17 24 25 26 26 25 23 23 21 23 31 41 49 51 56 59 62 63
36 32 33 29 30 32 30 22 21 20 20 21 19 20 19 21 21 23 27 27 27 32 25 21 18 21 22 23 24 22 22 25 23 23 23 20 22 40 47 50 55 57 60 62 62
40 39 39 34 34 34 34 32 24 21 20 22 19 20 20 20 19 20 27 30 25 26 29 24 22 23 22 22 21 22 21 22 21 20 21 34 43 49 52 55 55 56 59 60 60
45 44 37 38 34 33 34 36 26 24 25 23 23 25 25 24 27 27 28 29 31 29 26 24 24 21 21 20 22 24 24 23 18 36 41 40 41 50 53 54 55 57 58 58 60

GFSSW_sfc_dewp_264.txt.gz
Dewpoint
58 58 58 58 58 57 58 58 58 59 59 59 59 60 60 61 59 48 29 55 66 74 72 66 68 66 64 62 63 61 56 56 55 53 53 54 50 53 54 53 54 56 54 59 61
58 58 58 58 58 58 58 58 59 59 59 59 59 59 60 60 40 32 63 70 73 73 64 65 64 67 62 59 60 57 55 54 58 57 54 55 51 53 50 52 55 57 59 61 61
57 57 58 58 58 58 58 58 59 59 59 59 59 59 60 57 35 43 71 73 73 71 65 66 66 65 59 59 57 57 55 57 58 57 57 55 52 52 51 50 53 57 59 61 60
57 57 57 57 58 58 58 58 58 58 58 59 59 59 60 45 29 46 70 74 73 68 65 64 62 57 52 53 57 55 57 57 58 57 57 55 56 52 52 53 54 56 59 60 59
57 57 57 57 57 58 58 58 58 58 58 58 59 59 47 29 33 58 72 73 66 64 60 56 58 53 49 51 56 55 57 58 59 59 59 60 57 55 53 55 54 57 59 58 58
57 57 57 57 57 57 57 58 58 58 58 58 59 59 35 31 48 55 57 65 61 59 46 50 51 47 47 53 54 55 57 59 62 60 61 61 61 60 56 56 56 59 59 60 60
57 57 57 57 57 57 57 57 57 57 58 58 59 51 30 33 43 56 56 54 54 53 44 44 44 46 46 48 58 57 55 58 59 60 57 58 55 56 58 57 56 57 59 60 61
57 57 57 57 57 57 57 57 57 58 58 59 59 43 23 26 38 42 51 48 50 51 45 46 49 46 45 56 55 50 51 49 56 58 56 57 54 55 58 56 56 55 57 58 60
57 57 57 56 56 57 56 56 57 57 57 58 47 35 23 37 16 21 34 20 31 32 35 43 44 45 43 41 45 41 43 46 50 54 55 56 55 55 57 56 56 56 55 57 58
57 57 56 56 56 56 55 55 55 56 54 49 41 24 17 15 15 13 23 12 7 23 36 41 39 40 42 39 40 35 37 39 32 39 47 45 47 54 55 55 55 55 55 57 57
56 56 56 56 55 55 48 36 29 25 22 20 17 15 14 17 18 12 11 10 12 12 25 35 34 36 37 36 34 35 38 35 28 35 34 32 37 44 54 54 55 55 55 56 56
56 56 56 55 55 55 47 28 31 30 16 21 20 17 19 19 9 10 11 9 10 10 24 30 28 33 25 25 30 32 31 33 32 22 18 28 34 43 49 54 54 55 54 55 55
56 56 55 55 54 47 32 33 35 33 16 16 17 12 12 12 10 9 9 6 9 16 17 19 24 19 22 22 25 26 26 26 21 23 28 35 34 45 52 54 55 54 55 55 55
55 55 55 53 45 36 31 36 35 28 13 11 9 13 13 11 12 19 16 9 10 16 21 20 11 14 18 20 17 15 14 14 15 18 31 26 28 34 45 51 53 54 54 54 56
54 53 53 53 39 29 34 34 29 26 7 12 11 18 15 12 13 17 21 9 7 8 9 10 9 10 13 15 12 12 14 13 12 14 18 27 28 32 38 41 46 49 52 53 55
54 52 52 45 39 32 32 34 30 17 10 11 14 14 14 14 18 19 17 19 21 15 13 14 18 17 17 16 16 16 11 11 10 7 9 21 28 30 32 37 39 42 48 52 53
53 52 50 38 28 32 35 32 17 11 16 12 13 14 14 15 19 18 17 17 17 17 17 17 17 19 19 15 17 14 7 3 7 3 5 11 18 27 33 37 33 33 37 44 46
52 52 49 37 35 35 37 26 18 15 12 15 15 15 14 18 21 21 18 16 19 17 15 13 15 17 19 17 16 14 9 7 12 3 5 23 17 23 31 30 32 36 39 42 45
51 41 34 34 35 37 33 20 18 17 13 14 15 14 16 17 17 19 21 19 19 22 20 14 14 19 20 18 17 19 14 16 9 8 8 4 15 20 22 29 32 34 36 41 45
42 35 34 39 37 35 29 25 21 15 15 15 14 18 16 16 15 17 19 20 18 19 19 22 12 16 18 16 17 15 20 10 9 13 13 4 13 11 26 30 29 32 34 41 46
42 29 37 38 34 30 20 22 22 17 17 15 18 18 18 17 16 16 18 20 19 18 19 15 14 18 18 16 14 15 9 13 8 13 8 8 12 28 30 29 28 29 32 36 45
35 28 38 36 27 28 23 26 29 18 20 21 22 21 20 19 17 17 17 18 23 21 19 21 12 14 12 19 22 20 19 19 14 18 17 15 14 16 26 25 26 26 33 35 44
39 36 36 34 22 20 27 24 20 19 21 21 20 21 21 21 21 18 18 22 24 22 24 24 18 14 14 16 24 20 21 20 19 18 20 14 13 21 23 21 22 22 31 41 47
39 29 34 34 32 25 26 25 22 20 20 22 22 23 24 22 25 22 21 21 23 23 39 26 19 20 11 13 16 22 22 21 18 15 14 14 16 20 19 18 19 22 38 44 48
41 35 37 29 30 28 27 25 23 21 21 22 23 22 23 24 23 23 23 24 23 38 28 22 23 22 18 15 13 14 13 12 16 18 13 12 12 16 20 22 25 39 44 44 49
43 40 38 37 36 32 31 26 24 22 23 22 24 21 23 25 25 25 25 26 26 28 27 25 25 26 20 15 13 11 10 12 14 14 13 12 14 16 21 26 37 44 45 44 45
48 47 40 38 35 31 32 29 23 24 24 24 23 23 23 24 25 25 26 27 29 29 29 28 26 26 21 21 22 19 19 18 16 15 15 16 21 24 30 34 38 42 45 44 46

GFSSW_sfc_dewp_270.txt.gz
Dewpoint
59 59 59 59 59 59 59 59 60 60 60 60 60 61 61 61 58 51 41 62 65 73 73 67 66 64 63 60 61 61 61 57 52 44 44 45 44 46 48 47 48 53 54 56 57
59 59 59 59 59 59 59 59 59 59 60 60 60 61 61 61 41 31 58 73 73 74 65 64 63 63 56 57 63 60 61 55 47 46 45 46 44 46 47 48 50 51 55 55 56
59 59 59 59 59 59 59 59 60 60 60 60 60 61 61 58 35 43 70 73 73 71 65 62 62 61 55 56 62 63 55 54 52 49 47 46 45 51 50 48 51 52 54 55 55
59 59 58 58 58 59 59 59 59 60 60 59 60 60 61 42 35 52 72 73 73 65 64 61 58 56 53 56 56 53 54 54 55 54 53 52 48 46 46 47 52 53 54 55 54
58 58 58 58 58 58 58 59 59 59 59 59 59 60 44 32 39 58 74 72 62 62 59 55 52 50 50 52 56 54 54 55 55 57 58 57 55 50 48 50 53 53 54 54 53
58 58 58 58 58 58 58 59 59 59 59 59 59 60 41 33 45 52 57 61 57 59 54 50 46 46 46 51 54 56 54 56 57 57 57 56 57 55 51 50 52 53 53 53 53
58 58 58 58 58 58 58 58 58 58 59 59 60 49 39 35 41 45 52 52 53 53 49 45 45 45 46 51 53 58 55 56 58 57 56 57 57 60 53 50 51 52 52 52 52
58 58 58 58 57 57 58 57 57 58 59 60 60 45 32 37 39 43 45 47 46 46 46 43 45 44 46 49 52 54 57 57 56 57 58 60 56 60 54 52 50 51 52 52 53
57 57 57 57 57 57 57 57 57 59 60 59 50 41 27 43 33 40 41 36 36 38 37 35 37 41 44 42 45 54 46 50 53 54 57 58 57 55 55 53 52 52 53 54 55
56 56 56 56 56 56 56 56 57 56 56 46 42 35 23 23 21 25 32 27 23 28 29 37 38 38 41 39 39 42 40 36 47 43 43 48 51 53 54 53 53 52 52 53 54
56 56 56 56 56 55 49 38 29 29 30 23 16 18 18 18 17 19 22 22 20 18 20 35 35 36 34 40 40 39 35 35 34 37 33 35 37 50 53 53 53 53 53 52 53
56 55 56 55 55 54 50 34 26 26 19 14 14 13 13 14 13 13 11 11 15 15 14 20 27 31 35 33 32 34 35 35 34 33 34 39 37 42 51 52 52 53 53 52 52
56 56 55 55 54 46 33 28 26 23 20 10 6 5 7 10 7 6 6 7 7 8 8 12 21 26 30 30 27 24 28 27 30 28 27 30 38 39 50 51 52 53 55 55 53
56 55 55 53 44 31 22 26 21 25 22 12 8 7 5 5 6 10 6 7 5 6 7 11 18 19 20 14 12 13 14 15 18 16 17 27 31 39 45 49 50 51 53 54 55
55 55 54 53 40 29 28 21 21 25 19 11 5 10 8 6 11 9 7 6 8 7 15 14 15 12 14 12 15 15 10 13 13 10 6 10 21 29 43 46 49 50 55 54 55
55 54 53 42 39 30 25 22 24 19 17 8 8 7 6 6 9 11 8 11 11 6 9 11 12 11 12 14 13 11 10 8 7 4 5 8 4 15 35 43 50 55 58 58 62
54 53 52 42 26 20 19 23 16 13 14 10 6 3 5 7 9 10 11 11 13 13 10 8 8 10 12 8 10 12 8 8 8 4 3 6 4 27 38 41 45 49 52 55 61
53 52 48 33 19 28 22 22 19 12 13 9 6 5 5 9 10 11 13 13 14 15 15 15 9 14 14 12 17 17 6 9 13 8 10 16 15 34 37 39 40 41 41 42 42
52 42 32 28 23 27 24 19 19 18 11 8 7 7 9 10 13 12 13 15 16 17 21 18 15 17 17 16 11 14 18 13 8 8 1 9 30 33 35 36 36 36 38 38 41
49 36 26 18 11 25 25 25 16 14 13 11 10 10 13 12 11 13 15 17 14 14 15 16 19 18 16 14 11 9 10 6 12 13 10 3 11 20 36 34 33 31 32 34 35
46 32 23 20 19 21 18 21 19 17 13 10 10 11 12 13 11 11 14 17 15 14 15 10 13 13 16 15 11 10 15 11 1 3 7 7 20 33 36 32 30 26 25 26 32
39 31 28 22 23 21 18 18 26 17 17 10 12 12 15 14 14 14 15 18 16 16 17 22 15 14 13 16 16 16 17 14 12 18 16 12 8 29 30 27 24 22 26 26 26
41 29 33 27 21 17 18 13 16 17 13 11 14 16 17 17 19 17 19 18 17 19 29 25 21 17 18 15 16 17 21 16 12 10 18 15 15 24 26 24 25 23 23 31 38
40 32 30 28 26 27 29 21 20 17 11 12 16 18 19 20 23 23 19 19 20 27 48 33 19 22 18 23 23 22 19 17 18 18 19 15 17 21 25 24 21 23 25 32 43
40 33 37 24 20 26 28 23 19 14 16 18 21 20 21 23 22 23 21 22 22 40 27 26 26 26 25 24 22 21 19 18 18 16 16 20 20 21 26 27 33 39 43 42 44
42 42 41 35 34 31 30 26 17 15 17 19 22 19 22 25 26 25 23 25 26 28 29 28 29 29 27 26 24 22 20 17 16 16 16 15 16 18 23 31 37 41 41 44 46
47 44 44 36 33 28 29 25 22 21 20 20 21 23 21 24 25 25 24 26 27 29 31 30 30 31 29 27 24 23 22 22 23 21 20 20 26 28 29 34 38 38 40 41 43